Precipitable_Water
1.34 1.37 1.38 1.30 1.26 1.25 1.23 1.14 1.13 1.14 1.20 1.38 1.42 1.44 1.40 1.38 1.40 1.38 1.34 1.19 1.16 1.15 1.16 1.18 1.15 1.18 1.13 1.21 1.28 1.28 1.25 1.25 1.05 1.19 1.36 1.39 1.38 1.37 1.42 1.47 1.45 1.39 1.34
1.31 1.35 1.36 1.36 1.28 1.20 1.19 1.18 1.09 1.13 1.28 1.35 1.40 1.40 1.40 1.42 1.44 1.42 1.39 1.39 1.25 1.13 1.10 1.14 1.22 1.26 1.20 1.21 1.19 1.19 1.20 1.23 1.17 1.15 1.27 1.33 1.35 1.43 1.42 1.41 1.47 1.49 1.49
1.33 1.30 1.35 1.38 1.25 1.14 1.15 1.20 1.08 1.15 1.25 1.31 1.38 1.36 1.38 1.40 1.37 1.39 1.40 1.40 1.36 1.33 1.23 1.14 1.18 1.26 1.24 1.21 1.17 1.18 1.21 1.19 1.20 1.23 1.21 1.33 1.37 1.39 1.40 1.45 1.46 1.46 1.48
1.33 1.27 1.26 1.32 1.28 1.11 1.11 1.18 1.16 1.12 1.20 1.28 1.33 1.38 1.40 1.42 1.41 1.40 1.40 1.39 1.38 1.40 1.40 1.38 1.30 1.29 1.24 1.22 1.20 1.20 1.22 1.23 1.25 1.22 1.20 1.22 1.30 1.37 1.37 1.28 1.27 1.40 1.37
1.33 1.29 1.24 1.28 1.31 1.19 1.08 1.12 1.20 1.20 1.19 1.25 1.33 1.41 1.44 1.44 1.44 1.44 1.43 1.40 1.40 1.41 1.48 1.57 1.57 1.40 1.32 1.28 1.26 1.22 1.21 1.22 1.23 1.14 1.09 1.15 1.20 1.22 1.21 1.29 1.28 1.21 1.19
1.34 1.26 1.34 1.32 1.29 1.19 1.11 1.11 1.17 1.20 1.22 1.22 1.23 1.28 1.32 1.38 1.43 1.46 1.46 1.41 1.46 1.46 1.52 1.70 1.67 1.54 1.36 1.33 1.30 1.33 1.31 1.24 1.22 1.14 1.12 1.13 1.22 1.28 1.29 1.28 1.22 1.01 0.96
1.35 1.34 1.35 1.34 1.27 1.25 1.20 1.16 1.13 1.16 1.23 1.18 1.18 1.22 1.22 1.30 1.37 1.39 1.40 1.45 1.52 1.59 1.66 1.66 1.63 1.61 1.43 1.31 1.30 1.33 1.34 1.39 1.36 1.24 1.16 1.21 1.22 1.25 1.28 1.25 1.14 1.08 1.00
1.39 1.36 1.42 1.40 1.29 1.28 1.22 1.13 1.15 1.18 1.15 1.17 1.17 1.20 1.24 1.28 1.34 1.35 1.42 1.57 1.71 1.76 1.72 1.70 1.66 1.57 1.47 1.29 1.24 1.25 1.31 1.37 1.42 1.33 1.29 1.26 1.30 1.36 1.37 1.30 1.19 1.14 1.17
1.34 1.34 1.36 1.41 1.37 1.31 1.23 1.12 1.17 1.23 1.21 1.17 1.21 1.24 1.22 1.26 1.33 1.44 1.65 1.80 1.78 1.69 1.73 1.72 1.69 1.55 1.51 1.35 1.25 1.23 1.27 1.29 1.35 1.33 1.38 1.39 1.41 1.44 1.35 1.24 1.11 1.05 0.93
1.29 1.26 1.32 1.37 1.40 1.42 1.37 1.25 1.24 1.25 1.23 1.31 1.28 1.32 1.35 1.34 1.52 1.75 1.83 1.84 1.71 1.72 1.75 1.76 1.68 1.55 1.45 1.35 1.27 1.25 1.15 1.26 1.20 1.27 1.33 1.33 1.36 1.32 1.25 1.18 1.05 0.84 0.79
1.33 1.28 1.37 1.41 1.39 1.39 1.49 1.61 1.44 1.28 1.29 1.36 1.36 1.49 1.55 1.65 1.77 1.89 1.81 1.73 1.75 1.79 1.73 1.64 1.57 1.50 1.41 1.36 1.35 1.28 1.24 1.23 1.28 1.28 1.27 1.27 1.20 1.05 1.00 0.95 0.90 0.82 0.72
1.25 1.34 1.33 1.39 1.41 1.46 1.46 1.57 1.65 1.63 1.43 1.35 1.37 1.56 1.76 1.81 1.87 1.84 1.89 1.96 1.77 1.84 1.67 1.62 1.55 1.45 1.40 1.32 1.30 1.30 1.27 1.25 1.23 1.22 1.16 1.09 0.94 0.88 0.87 0.82 0.81 0.79 0.80
1.26 1.24 1.25 1.39 1.42 1.47 1.45 1.48 1.62 1.67 1.70 1.66 1.52 1.59 1.60 1.79 1.81 1.80 1.76 1.74 1.75 1.65 1.64 1.53 1.37 1.33 1.34 1.30 1.27 1.25 1.22 1.21 1.17 1.08 1.00 0.88 0.83 0.85 0.83 0.77 0.76 0.76 0.71
1.22 1.14 1.17 1.23 1.32 1.44 1.55 1.69 1.68 1.78 1.70 1.72 1.72 1.67 1.72 1.79 1.63 1.61 1.60 1.58 1.61 1.57 1.51 1.43 1.40 1.38 1.25 1.17 1.18 1.20 1.20 1.16 1.09 0.99 0.85 0.80 0.81 0.78 0.73 0.75 0.71 0.68 0.58
0.98 1.09 1.22 1.27 1.32 1.46 1.52 1.60 1.67 1.78 1.84 1.78 1.86 1.85 1.81 1.80 1.69 1.73 1.55 1.53 1.54 1.48 1.39 1.37 1.25 1.16 1.08 1.09 1.10 1.05 1.06 1.02 0.92 0.88 0.81 0.76 0.76 0.75 0.73 0.73 0.66 0.60 0.51
1.13 1.14 1.36 1.42 1.28 1.37 1.58 1.61 1.71 1.84 2.05 1.98 2.04 2.18 2.03 1.90 1.70 1.74 1.59 1.54 1.41 1.42 1.35 1.22 1.18 1.10 1.08 1.06 0.97 0.92 0.91 0.86 0.86 0.83 0.79 0.74 0.72 0.71 0.66 0.62 0.58 0.53 0.41
1.38 1.54 1.47 1.40 1.43 1.46 1.62 1.78 1.76 1.72 1.86 1.86 1.79 1.71 1.77 1.50 1.73 1.59 1.41 1.45 1.51 1.45 1.21 1.18 1.05 1.06 0.99 0.94 0.88 0.82 0.78 0.82 0.84 0.78 0.73 0.70 0.67 0.62 0.56 0.52 0.49 0.40 0.31
1.23 1.29 1.57 1.76 1.76 1.72 1.80 1.94 1.67 1.72 1.68 1.52 1.69 1.57 1.54 1.59 1.50 1.51 1.57 1.52 1.32 1.25 1.21 1.00 0.96 0.95 0.91 0.89 0.83 0.76 0.76 0.77 0.74 0.71 0.67 0.61 0.55 0.51 0.47 0.42 0.36 0.32 0.28
1.45 1.54 1.51 1.56 1.89 1.91 1.70 1.61 1.49 1.28 1.38 1.41 1.48 1.51 1.52 1.52 1.51 1.50 1.39 1.21 1.05 0.95 0.90 0.88 0.93 0.91 0.89 0.81 0.72 0.71 0.71 0.66 0.64 0.59 0.54 0.47 0.46 0.43 0.36 0.34 0.32 0.29 0.30
1.49 1.56 1.69 1.46 1.57 1.49 1.34 1.29 1.25 1.24 1.34 1.44 1.40 1.36 1.38 1.37 1.23 1.16 1.08 1.05 0.96 0.89 0.92 0.89 0.88 0.84 0.79 0.73 0.68 0.67 0.63 0.60 0.57 0.51 0.44 0.41 0.39 0.36 0.33 0.33 0.30 0.28 0.31
1.64 1.67 1.66 1.59 1.41 1.36 1.39 1.44 1.42 1.48 1.43 1.34 1.34 1.33 1.26 1.19 1.09 1.06 1.07 1.02 0.93 0.87 0.83 0.85 0.86 0.79 0.74 0.71 0.69 0.65 0.58 0.53 0.48 0.42 0.36 0.35 0.36 0.32 0.34 0.32 0.29 0.31 0.31
1.40 1.36 1.31 1.24 1.23 1.28 1.30 1.32 1.30 1.25 1.20 1.18 1.19 1.22 1.21 1.11 1.04 1.00 1.00 1.02 0.94 0.92 0.93 0.86 0.74 0.70 0.72 0.71 0.66 0.61 0.55 0.49 0.42 0.36 0.34 0.33 0.33 0.33 0.33 0.30 0.29 0.30 0.29
1.37 1.40 1.36 1.35 1.28 1.19 1.15 1.17 1.15 1.17 1.17 1.15 1.16 1.06 0.99 1.01 1.05 1.08 1.05 1.03 1.02 0.95 0.86 0.82 0.75 0.72 0.72 0.70 0.66 0.58 0.48 0.44 0.41 0.39 0.32 0.31 0.31 0.31 0.30 0.27 0.28 0.28 0.28
1.24 1.31 1.34 1.36 1.39 1.40 1.40 1.42 1.40 1.30 1.25 1.25 1.25 1.21 1.16 1.16 1.18 1.17 1.14 1.10 1.01 0.95 0.93 0.86 0.80 0.75 0.70 0.68 0.64 0.57 0.48 0.43 0.40 0.35 0.32 0.30 0.29 0.26 0.24 0.24 0.28 0.28 0.29
1.32 1.29 1.29 1.30 1.33 1.37 1.37 1.30 1.31 1.34 1.35 1.30 1.28 1.26 1.25 1.18 1.16 1.14 1.12 1.07 1.03 0.98 0.95 0.86 0.82 0.78 0.73 0.65 0.60 0.53 0.48 0.42 0.36 0.33 0.30 0.28 0.26 0.24 0.21 0.22 0.27 0.28 0.29
1.20 1.25 1.25 1.26 1.25 1.26 1.26 1.24 1.28 1.32 1.30 1.31 1.35 1.33 1.26 1.21 1.16 1.09 1.07 1.05 0.99 0.97 0.93 0.86 0.80 0.76 0.69 0.67 0.60 0.56 0.54 0.49 0.42 0.34 0.29 0.26 0.21 0.19 0.20 0.25 0.29 0.28 0.28
Wind_Speed
24 24 24 24 26 26 25 24 23 22 22 21 20 17 15 13 11 10 9 9 11 11 12 13 14 14 14 14 14 15 15 16 16 17 18 17 17 17 18 19 19 21 22
26 25 25 24 24 27 27 25 25 25 24 22 21 19 17 15 14 13 12 12 12 13 15 16 17 16 15 16 16 16 16 17 17 18 18 19 19 19 19 20 22 21 22
27 26 26 25 25 26 28 27 27 27 26 25 23 21 19 18 17 16 16 15 15 16 16 17 18 17 17 17 17 18 18 18 18 18 19 19 20 20 21 22 24 25 26
28 27 26 26 25 26 28 28 28 28 28 27 25 23 22 20 19 18 18 18 19 19 19 19 19 18 18 18 19 19 19 20 20 20 21 22 23 24 24 26 27 27 28
30 28 27 27 26 26 29 29 30 29 29 28 27 25 24 23 22 21 20 20 21 21 22 21 20 20 20 21 21 21 21 21 22 23 24 25 25 26 27 28 28 29 28
31 30 29 28 28 28 29 30 31 31 31 30 29 28 27 26 25 24 24 23 23 23 23 22 22 22 22 22 23 22 23 23 24 23 26 25 28 26 28 29 30 30 30
30 31 30 30 30 29 30 31 33 32 32 32 31 31 30 29 28 27 26 25 25 24 23 23 24 24 24 24 24 24 25 25 25 26 26 26 26 27 29 30 30 31 31
31 31 32 32 32 32 32 33 34 35 34 34 33 33 32 31 30 29 28 26 25 24 24 24 25 25 24 24 25 25 25 27 26 27 27 27 27 29 30 30 31 32 33
33 33 34 33 33 34 35 35 35 36 36 35 34 33 33 32 31 29 27 26 25 25 24 24 25 26 25 25 25 25 25 26 26 28 28 28 29 30 30 30 31 32 34
36 34 35 34 35 35 36 37 37 36 37 36 35 35 34 32 30 29 27 26 25 25 25 25 25 25 25 24 24 24 26 26 26 27 26 27 28 27 29 30 32 32 31
37 36 36 36 35 36 36 37 39 38 37 37 36 35 34 33 31 30 28 26 25 24 25 24 25 24 24 23 24 24 25 25 26 26 26 26 26 27 28 29 28 28 28
38 37 37 37 36 35 36 38 39 39 39 37 37 35 34 33 31 29 28 25 24 24 24 25 24 24 23 23 23 25 25 24 25 24 25 25 25 26 27 27 26 26 28
40 40 40 41 40 39 39 38 40 40 39 38 37 36 34 33 32 30 29 26 23 24 24 23 23 23 23 22 23 22 23 22 22 23 23 23 24 25 26 25 26 27 28
43 44 45 45 43 42 41 40 39 40 41 42 38 36 35 34 33 31 28 23 23 22 21 22 22 21 20 19 20 20 21 22 22 21 22 23 23 23 24 24 25 26 27
45 47 47 46 44 42 40 41 40 41 43 41 40 39 36 33 33 29 24 23 22 21 21 22 21 20 19 19 19 19 19 19 19 20 22 22 22 23 23 24 24 25 26
42 45 45 44 43 42 40 38 37 38 38 37 39 35 30 27 27 23 22 21 21 21 22 22 20 19 19 19 19 18 18 19 20 20 21 22 22 22 23 23 24 25 25
38 40 44 46 44 43 40 37 34 32 34 34 36 37 19 21 21 20 20 19 20 20 21 19 18 17 18 17 17 18 18 18 18 19 20 20 20 21 22 23 24 24 24
45 48 46 42 45 46 42 39 36 35 30 32 38 29 23 20 20 18 18 17 19 21 20 17 17 17 17 17 18 17 16 16 18 19 19 18 19 20 21 21 22 22 23
33 38 62 49 39 45 41 35 38 41 36 25 22 20 19 18 17 17 17 18 17 16 16 16 17 17 17 17 16 14 15 16 17 17 17 18 18 19 19 20 21 21 22
11 5 10 34 26 15 19 22 17 17 20 19 18 19 18 18 17 18 17 17 17 17 17 17 17 16 15 14 14 14 16 17 17 17 17 17 17 17 18 19 20 20 22
2 4 8 11 12 12 14 15 15 16 17 17 17 18 18 18 18 17 17 16 17 16 16 16 15 15 14 14 14 16 16 16 16 16 16 16 15 16 17 18 19 20 21
0 1 4 5 7 9 11 13 14 15 16 16 16 16 16 17 18 18 17 17 15 14 14 14 14 15 14 15 16 16 17 16 16 15 16 15 15 15 16 17 18 19 20
4 4 4 5 6 8 10 11 13 15 16 17 18 17 17 17 17 17 16 15 15 14 14 15 15 14 15 15 16 16 17 17 16 16 15 15 14 15 16 16 16 17 19
7 8 9 9 10 11 13 15 15 16 16 17 17 18 18 17 17 17 17 17 17 16 16 16 16 16 16 16 16 17 17 16 15 14 14 14 15 15 15 15 15 16 18
15 13 12 12 12 13 14 16 18 19 19 19 19 20 20 19 18 18 18 18 18 19 18 18 18 18 18 17 16 16 15 14 14 14 14 15 15 15 15 14 14 15 16
15 18 19 18 17 18 18 19 19 20 20 21 22 21 19 19 20 20 20 21 21 20 19 19 18 18 18 17 17 16 15 14 14 14 15 16 16 16 15 14 14 14 15
Wind_Direction
226 227 229 231 231 230 230 230 225 219 215 217 216 220 226 229 236 247 267 280 289 293 300 309 316 312 309 308 311 311 306 303 300 300 299 299 299 291 286 286 287 291 290
228 229 230 232 231 229 228 226 221 217 217 217 219 223 228 233 241 251 264 275 284 291 291 296 303 307 304 304 305 305 306 302 303 298 298 297 297 296 291 289 291 292 292
228 229 230 232 232 229 224 223 220 218 218 219 222 226 231 238 244 254 264 272 280 287 292 293 296 299 300 301 300 301 300 302 301 300 298 298 297 299 295 294 295 292 291
227 228 229 230 231 227 223 222 220 219 220 222 226 231 236 243 249 257 264 271 278 283 287 290 293 293 294 295 298 298 298 298 298 299 297 293 293 293 293 297 295 294 294
227 228 230 229 230 227 224 223 222 222 224 226 230 234 240 246 252 258 265 271 277 281 283 285 291 291 291 292 295 296 297 297 296 299 299 295 293 291 291 295 295 295 295
227 230 230 229 229 228 226 225 225 227 228 230 233 237 242 248 253 259 266 271 276 280 280 282 289 290 289 290 292 292 294 294 296 297 300 296 295 291 294 295 293 294 295
229 230 231 231 231 231 229 228 228 229 231 233 236 239 244 249 254 260 265 271 274 277 277 284 287 290 287 288 291 291 292 292 293 296 300 298 296 293 294 294 294 293 293
231 232 233 233 233 232 232 232 232 233 234 235 238 242 246 250 255 260 263 268 272 272 277 284 287 288 288 287 290 291 291 294 292 297 297 296 296 297 295 295 295 295 296
233 234 234 235 235 234 235 235 234 235 236 238 241 243 246 251 253 257 261 264 267 270 278 284 287 289 287 287 288 288 290 291 294 297 296 296 296 296 295 296 296 297 297
234 234 236 236 236 237 237 236 235 236 238 240 242 244 246 248 250 254 259 263 265 270 276 283 287 288 286 285 287 287 293 291 295 298 297 298 299 298 299 298 298 298 299
236 237 239 237 238 240 239 238 237 237 239 240 242 244 245 246 249 252 255 259 263 269 276 283 288 287 284 284 285 289 293 294 295 297 298 300 300 301 302 303 302 302 302
239 240 238 238 240 241 241 241 239 239 240 240 241 243 243 246 248 250 253 258 263 267 276 283 285 285 283 283 286 288 293 294 297 297 299 299 301 303 304 305 305 305 306
240 241 242 243 243 243 244 244 240 239 239 241 241 242 243 244 244 246 250 256 261 271 278 281 286 287 283 284 287 288 291 294 296 298 299 301 303 304 306 306 308 309 310
244 246 248 246 246 247 248 244 243 241 239 240 240 242 243 240 239 245 254 251 264 270 277 283 286 286 286 286 289 292 293 295 295 297 300 302 305 307 308 307 309 311 313
251 250 248 246 245 245 244 244 244 242 240 239 241 242 239 234 238 231 244 254 259 267 276 283 281 280 280 286 292 294 295 295 296 298 301 303 304 306 308 309 309 311 314
256 250 244 243 242 242 242 242 240 238 237 237 242 241 228 220 246 242 246 250 257 265 276 282 276 274 278 285 289 292 295 294 297 299 301 303 303 305 308 310 311 312 314
257 253 244 242 237 236 232 232 232 234 234 239 238 242 253 235 232 233 242 251 259 268 275 272 270 271 278 283 287 293 294 296 299 301 301 301 303 306 308 311 313 314 315
260 253 247 243 237 228 224 225 231 231 237 251 246 239 236 233 230 237 246 257 264 270 269 266 266 270 278 281 288 291 291 296 300 302 302 301 304 307 310 313 315 317 317
274 269 239 230 241 214 212 232 249 259 249 240 224 218 224 227 236 243 247 259 262 262 261 264 267 274 277 281 287 288 291 297 299 301 299 301 305 310 313 316 318 319 320
319 213 163 201 222 207 208 217 216 212 212 213 214 215 219 228 242 246 251 255 259 262 263 267 270 272 275 278 282 286 292 295 297 298 297 300 304 310 315 319 321 322 324
353 131 152 169 173 175 185 200 206 203 206 209 211 215 226 236 239 244 250 256 260 263 264 266 266 267 270 275 282 287 291 292 292 294 293 297 301 309 315 320 322 323 325
345 135 157 171 178 193 201 202 203 206 208 214 220 226 233 238 240 246 254 255 256 263 267 265 262 265 269 277 283 285 288 287 287 290 291 293 297 306 313 318 321 326 328
232 211 202 196 197 199 206 210 215 218 226 232 232 240 240 243 243 247 248 250 256 267 267 263 263 266 273 280 283 286 285 283 284 286 285 287 292 300 308 313 319 324 330
250 247 244 241 238 238 234 231 233 237 236 238 237 240 241 245 248 247 250 253 257 262 266 266 264 267 274 279 280 283 283 280 279 279 281 285 290 296 303 308 315 321 327
257 250 246 245 245 243 240 240 241 238 242 246 246 243 244 245 243 248 251 255 260 264 264 264 263 265 270 275 276 278 278 275 273 273 278 284 288 291 296 300 308 318 325
251 248 248 250 250 251 256 256 247 250 249 248 247 236 243 240 247 251 255 258 262 263 262 261 260 261 264 267 270 269 269 270 272 274 278 283 285 286 287 291 299 311 318